Targu Mures, Romania

1:38 PM EEST on August 14, 2018 (GMT +0300)
Vidrasau

Weather History for LRTM - May, 2018

Change the Weather History Date:

Wednesday, May 16, 2018

  Actual Average Record
Temperature  
Mean Temperature 59 °F -  
Max Temperature 67 °F 72 °F 82 °F (1997)
Min Temperature 48 °F 50 °F 39 °F (2013)
Degree Days  
Heating Degree Days 6    
Growing Degree Days 9 (Base 50)    
Moisture  
Dew Point 52 °F    
Average Humidity 80    
Maximum Humidity 100    
Minimum Humidity 47    
Precipitation  
Precipitation 0.31 in - - ()
Sea Level Pressure  
Sea Level Pressure 29.87 in    
Wind  
Wind Speed 7 mph ()    
Max Wind Speed 33 mph    
Max Gust Speed 40 mph    
Visibility 6.5 miles    
Events Rain , Thunderstorm    
Averages and records for this station are not official NWS values.
T = Trace of Precipitation, MM = Missing Value Source: Averaged Metar Reports

Daily Weather History Graph

Daily Weather History Graph

Search for Another Location

Airport or City:

Astronomy

May. 16, 2018 Rise Set
Actual Time 5:47 AM EEST 8:50 PM EEST
Civil Twilight 5:11 AM EEST 9:25 PM EEST
Nautical Twilight 4:25 AM EEST 10:12 PM EEST
Astronomical Twilight 3:30 AM EEST 11:08 PM EEST
Moon 6:47 AM EEST (5/16) 9:55 PM EEST (5/16)
Length of Visible Light 16h 14m
Length of Day
15h 02m
New Moon, 1% of the Moon is Illuminated
May 16
New Moon
May 22
First Quarter
May 29
Full
Jun 6
Last Quarter
Jun 13
New

Hourly Weather History & Observations

Time (EEST) Temp. Dew Point Humidity Pressure Visibility Wind Dir Wind Speed Gust Speed Precip Events Conditions
12:00 AM 57 °F 56 °F 94% 29.91 in 6 mi ENE 6.7 mph - - Thunderstorm Light Thunderstorm
12:00 AM 57.2 °F 55.4 °F 94% 29.89 in 6.2 mi NE 4.6 mph - N/A   Mostly Cloudy
12:30 AM 57.2 °F 55.4 °F 94% 29.86 in 5.6 mi ENE 6.9 mph - N/A   Overcast
1:00 AM 55 °F 55 °F 99% 29.90 in 6 mi NNE 4.5 mph - -   Overcast
1:00 AM 57.2 °F 55.4 °F 94% 29.86 in 6.2 mi NE 4.6 mph - N/A   Mostly Cloudy
1:30 AM 55.4 °F 55.4 °F 100% 29.83 in 6.2 mi ENE 5.8 mph - N/A   Mostly Cloudy
2:00 AM 57.2 °F 55.4 °F 94% 29.83 in 6.2 mi SE 1.2 mph - N/A   Mostly Cloudy
2:30 AM 57.2 °F 55.4 °F 94% 29.83 in 4.3 mi East 5.8 mph - N/A Rain Light Rain
3:00 AM 56 °F 56 °F 99% 29.85 in 6 mi ENE 4.5 mph - -   Partly Cloudy
3:00 AM 57.2 °F 55.4 °F 94% 29.80 in 3.7 mi East 3.5 mph - N/A Rain Rain
3:30 AM 57.2 °F 55.4 °F 94% 29.80 in 3.1 mi West 2.3 mph - N/A Rain Heavy Rain
4:00 AM 56 °F 56 °F 100% 29.83 in 6 mi SSE 2.2 mph - - Rain Heavy Rain Showers
4:00 AM 57.2 °F 55.4 °F 94% 29.80 in - WSW 3.5 mph - N/A Rain Heavy Rain
4:30 AM 57.2 °F 55.4 °F 94% 29.80 in 1.7 mi West 3.5 mph - N/A Rain Heavy Rain
5:00 AM 56 °F 56 °F 100% 29.84 in 2 mi South 2.2 mph - - Rain , Thunderstorm Heavy Thunderstorms and Rain
5:00 AM 55.4 °F 55.4 °F 100% 29.77 in - North 3.5 mph - N/A Rain Rain
5:30 AM 57.2 °F 55.4 °F 94% 29.74 in - ESE 3.5 mph - N/A   Mostly Cloudy
6:00 AM 57.2 °F 57.2 °F 100% 29.77 in - Variable 3.5 mph - N/A   Overcast
6:30 AM 57.2 °F 57.2 °F 100% 29.77 in - South 2.3 mph - N/A Rain Light Rain Showers
7:00 AM 57 °F 57 °F 99% 29.79 in 2 mi SSW 2.2 mph - - Rain Light Rain
7:00 AM 57.2 °F 57.2 °F 100% 29.77 in 1.6 mi SW 9.2 mph - N/A Rain Heavy Rain
7:30 AM 57.2 °F 57.2 °F 100% 29.77 in 4.3 mi South 3.5 mph - N/A Rain Light Rain
8:00 AM 59.0 °F 57.2 °F 94% 29.77 in 6.2 mi SW 3.5 mph - N/A   Mostly Cloudy
8:30 AM 59.0 °F 55.4 °F 88% 29.77 in 6.2 mi South 4.6 mph - N/A   Scattered Clouds
9:00 AM 58 °F 58 °F 99% 29.80 in 6 mi South 4.5 mph - - Rain Light Rain Showers
9:00 AM 62.6 °F 55.4 °F 77% 29.77 in 6.2 mi SSE 8.1 mph - N/A   Scattered Clouds
9:30 AM 60.8 °F 55.4 °F 82% 29.80 in 5.6 mi South 11.5 mph - N/A Rain Light Rain Showers
10:00 AM 60.8 °F 53.6 °F 77% 29.80 in 6.2 mi SSW 15.0 mph - N/A   Partly Cloudy
10:30 AM 62.6 °F 53.6 °F 72% 29.80 in 6.2 mi SW 15.0 mph - N/A   Partly Cloudy
11:00 AM 63 °F 55 °F 68% 29.82 in 12 mi SW 8.9 mph - - Rain Light Rain Showers
11:00 AM 64.4 °F 51.8 °F 64% 29.83 in 6.2 mi SW 15.0 mph - N/A   Partly Cloudy
11:30 AM 64.4 °F 51.8 °F 64% 29.83 in 6.2 mi SW 11.5 mph - N/A   Scattered Clouds
12:00 PM 65 °F 51 °F 51% 29.83 in 12 mi WSW 11.2 mph - -   Partly Cloudy
12:00 PM 66.2 °F 51.8 °F 60% 29.83 in 6.2 mi SW 10.4 mph - N/A   Scattered Clouds
12:30 PM 64.4 °F 51.8 °F 64% 29.83 in 6.2 mi SSW 8.1 mph - N/A   Partly Cloudy
1:00 PM 67 °F 51 °F 47% 29.85 in 12 mi SSW 4.5 mph - -   Partly Cloudy
1:00 PM 64.4 °F 51.8 °F 64% 29.83 in 6.2 mi SSW 8.1 mph - N/A Thunderstorm Partly Cloudy
1:30 PM 55.4 °F 51.8 °F 88% 29.86 in 4.3 mi WSW 25.3 mph - N/A Rain , Thunderstorm Thunderstorms and Rain
2:00 PM 65 °F 50 °F 48% 29.83 in 12 mi South 6.7 mph - - Thunderstorm Thunderstorm
2:00 PM 60.8 °F 51.8 °F 72% 29.86 in 6.2 mi SW 20.7 mph - N/A Rain , Thunderstorm Light Thunderstorms and Rain
2:30 PM 62.6 °F 48.2 °F 59% 29.86 in 6.2 mi SW 33.4 mph - N/A   Partly Cloudy
3:00 PM 60.8 °F 48.2 °F 63% 29.89 in 6.2 mi SW 27.6 mph 40.3 mph N/A   Partly Cloudy
3:30 PM 60.8 °F 48.2 °F 63% 29.89 in 6.2 mi SW 27.6 mph - N/A   Partly Cloudy
4:00 PM 60 °F 48 °F 54% 29.93 in 12 mi WSW 20.1 mph - -   Mostly Cloudy
4:00 PM 60.8 °F 48.2 °F 63% 29.92 in 6.2 mi SW 24.2 mph - N/A   Partly Cloudy
4:30 PM 64.4 °F 50.0 °F 59% 29.92 in 6.2 mi SW 21.9 mph - N/A   Partly Cloudy
5:00 PM 62.6 °F 50.0 °F 63% 29.95 in 6.2 mi SW 21.9 mph - N/A   Partly Cloudy
5:30 PM 60.8 °F 50.0 °F 68% 29.95 in 6.2 mi SW 20.7 mph - N/A   Partly Cloudy
6:00 PM 62.6 °F 48.2 °F 59% 29.95 in 6.2 mi SW 16.1 mph - N/A   Partly Cloudy
6:30 PM 62.6 °F 50.0 °F 63% 29.95 in 6.2 mi SW 16.1 mph - N/A   Partly Cloudy
7:00 PM 60.8 °F 50.0 °F 68% 29.98 in 6.2 mi SW 13.8 mph - N/A   Partly Cloudy
7:30 PM 60.8 °F 48.2 °F 63% 29.95 in 6.2 mi SW 12.7 mph - N/A   Partly Cloudy
8:00 PM 61 °F 48 °F 52% 29.98 in 12 mi North 4.5 mph - -   Partly Cloudy
8:00 PM 59.0 °F 48.2 °F 67% 29.95 in 6.2 mi SW 9.2 mph - N/A   Partly Cloudy
8:30 PM 55.4 °F 50.0 °F 82% 29.95 in 6.2 mi WSW 8.1 mph - N/A   Partly Cloudy
9:00 PM 57 °F 50 °F 69% 29.99 in 12 mi WSW 2.2 mph - -   Scattered Clouds
9:00 PM 55.4 °F 48.2 °F 77% 29.95 in 6.2 mi WSW 3.5 mph - N/A   Unknown
9:30 PM 53.6 °F 48.2 °F 82% 29.98 in 6.2 mi ESE 1.2 mph - N/A   Unknown
10:00 PM 54 °F 49 °F 79% 30.00 in 12 mi Calm Calm - -   Scattered Clouds
10:00 PM 53.6 °F 50.0 °F 88% 29.98 in 6.2 mi Variable 2.3 mph - N/A   Scattered Clouds
10:30 PM 51.8 °F 48.2 °F 88% 29.98 in 6.2 mi Calm Calm - N/A   Unknown
11:00 PM 51 °F 49 °F 88% 30.02 in 6 mi East 2.2 mph - -   Scattered Clouds
11:00 PM 51.8 °F 48.2 °F 88% 29.98 in 6.2 mi Calm Calm - N/A   Unknown
11:30 PM 48.2 °F 46.4 °F 93% 29.98 in 6.2 mi North 2.3 mph - N/A   Unknown